Location: Ch�risy
(50.2331°N, 2.9131°E)
Time: 06:59:23
(UTC+00:00)

CSL-04 DEB - Visible Passes

Search period start: 11 May 2021 00:00
Search period end: 21 May 2021 00:00
Orbit: 545 x 626 km, 98.8° (Epoch: 10 May)

Date Brightness Start Highest point End Pass type
(mag) Time Alt. Az. Time Alt. Az. Time Alt. Az.
14 May 7.6 20:04:46 10° NNW 20:07:51 20° WNW 20:10:51 10° WSW visible
15 May 7.6 20:11:45 10° NNW 20:14:34 18° WNW 20:17:20 10° W visible
16 May 7.7 20:18:44 10° NNW 20:21:17 16° WNW 20:23:45 10° W visible
17 May 7.8 20:25:48 10° NNW 20:27:59 14° NW 20:30:07 10° W visible
18 May 8.0 20:32:56 10° NNW 20:34:41 12° NW 20:36:25 10° W visible
19 May 8.2 20:40:14 10° NW 20:41:22 11° NW 20:42:30 10° WNW visible
